GW3992 Weather Reports


Display with metric or nautical units.
time (UTC)temp
F
wind
direction
speed
MPH
gust
MPH
rain 1hr
in
rain 24hr
in
rain mn
in
humidity
%
barometer
mb
20260509185432 57 71 1.0 2.0 0.00 0.00 0.00 75 1006.5
20260509184928 57 51 3.0 4.0 0.00 0.00 0.00 72 1006.6
20260509184426 57 159 1.0 2.0 0.00 0.00 0.00 70 1006.6
20260509183923 57 40 3.0 4.0 0.00 0.00 0.00 74 1006.8
20260509183417 57 50 2.0 2.0 0.00 0.00 0.00 78 1006.9
20260509182914 57 132 1.0 1.0 0.00 0.00 0.00 79 1006.9
20260509182411 57 76 1.0 2.0 0.00 0.00 0.00 81 1006.8
20260509181908 56 99 1.0 2.0 0.00 0.00 0.00 83 1006.9
20260509181406 56 76 0.0 1.0 0.00 0.00 0.00 82 1007.1
20260509180903 56 30 1.0 3.0 0.00 0.00 0.00 83 1007.6
20260509180358 56 63 1.0 3.0 0.00 0.00 0.00 83 1007.3
20260509175855 56 133 0.0 2.0 0.00 0.00 0.00 85 1007.3
20260509175351 56 68 2.0 4.0 0.00 0.00 0.00 84 1007.5
20260509174847 56 76 0.0 1.0 0.00 0.00 0.00 83 1007.6
20260509174343 56 70 1.0 2.0 0.00 0.00 0.00 84 1007.7
20260509173839 57 161 3.0 7.0 0.00 0.00 0.00 84 1007.5
20260509173335 57 57 1.0 1.0 0.00 0.00 0.00 81 1007.8
20260509172831 57 57 0.0 0.0 0.00 0.00 0.00 80 1007.6
20260509172328 57 143 2.0 3.0 0.00 0.00 0.00 81 1007.6
20260509171824 57 80 0.0 0.0 0.00 0.00 0.00 82 1007.9
20260509171319 57 198 4.0 8.0 0.00 0.00 0.00 84 1007.5
20260509170816 57 60 0.0 1.0 0.00 0.00 0.00 85 1007.7
20260509170312 57 60 0.0 1.0 0.00 0.00 0.00 83 1007.6
20260509165812 57 40 3.0 4.0 0.00 0.00 0.00 83 1007.8
20260509165307 57 41 0.0 1.0 0.00 0.00 0.00 82 1007.7
20260509164803 57 183 0.0 1.0 0.00 0.00 0.00 82 1007.9
20260509164259 57 68 1.0 2.0 0.00 0.00 0.00 82 1007.9
20260509163756 57 129 0.0 0.0 0.00 0.00 0.00 81 1008.0
20260509163252 57 33 0.0 1.0 0.00 0.00 0.00 82 1007.8
20260509162751 57 64 0.0 0.0 0.00 0.00 0.00 82 1008.1
20260509162245 57 191 1.0 4.0 0.00 0.00 0.00 81 1007.8
20260509161742 57 75 0.0 1.0 0.00 0.00 0.00 79 1008.1
20260509161237 57 56 0.0 1.0 0.00 0.00 0.00 78 1008.1
20260509160732 57 94 1.0 2.0 0.00 0.00 0.00 75 1008.3
20260509160229 57 187 0.0 1.0 0.00 0.00 0.00 77 1008.0
20260509155724 57 49 0.0 1.0 0.00 0.00 0.00 74 1008.1
20260509155221 57 96 1.0 2.0 0.00 0.00 0.00 79 1008.2
20260509154717 57 90 4.0 6.0 0.00 0.00 0.00 77 1008.2
20260509154214 57 63 0.0 0.0 0.00 0.00 0.00 83 1008.3
20260509153711 57 86 0.0 0.0 0.00 0.00 0.00 82 1008.3
20260509153208 57 77 1.0 1.0 0.00 0.00 0.00 79 1008.4
20260509152704 57 139 5.0 8.0 0.00 0.00 0.00 79 1008.3
20260509152200 57 93 0.0 0.0 0.00 0.00 0.00 78 1008.4
20260509151657 57 52 4.0 4.0 0.00 0.00 0.00 78 1008.5
20260509151154 57 90 0.0 0.0 0.00 0.00 0.00 80 1008.2
20260509150652 57 82 0.0 0.0 0.00 0.00 0.00 78 1008.5
20260509150150 58 66 4.0 8.0 0.00 0.00 0.00 77 1008.4
20260509145646 58 64 1.0 2.0 0.00 0.00 0.00 75 1008.5
20260509145141 58 62 1.0 1.0 0.00 0.00 0.00 74 1008.3
20260509144638 58 77 0.0 0.0 0.00 0.00 0.00 74 1008.6
20260509144136 58 89 0.0 1.0 0.00 0.00 0.00 75 1008.6
20260509143633 58 86 0.0 0.0 0.00 0.00 0.00 75 1008.6
20260509143130 58 74 1.0 2.0 0.00 0.00 0.00 75 1008.7
20260509142625 58 90 0.0 0.0 0.00 0.00 0.00 75 1008.4
20260509142122 58 52 0.0 0.0 0.00 0.00 0.00 73 1008.4
20260509141618 59 49 0.0 0.0 0.00 0.00 0.00 72 1008.5
20260509141114 58 248 0.0 0.0 0.00 0.00 0.00 71 1008.5
20260509140612 59 28 2.0 2.0 0.00 0.00 0.00 69 1008.7
20260509140110 58 57 1.0 2.0 0.00 0.00 0.00 68 1008.5
20260509135607 59 96 0.0 0.0 0.00 0.00 0.00 69 1008.5
20260509135105 59 54 0.0 1.0 0.00 0.00 0.00 70 1008.6
20260509134601 59 97 0.0 0.0 0.00 0.00 0.00 70 1008.6
20260509134058 59 11 1.0 3.0 0.00 0.00 0.00 71 1008.6
20260509133555 59 50 1.0 1.0 0.00 0.00 0.00 74 1008.6
20260509133053 58 84 0.0 0.0 0.00 0.00 0.00 73 1008.7
20260509132551 59 73 1.0 1.0 0.00 0.00 0.00 75 1008.7
20260509132049 59 73 0.0 1.0 0.00 0.00 0.00 74 1008.7
20260509131544 59 100 0.0 0.0 0.00 0.00 0.00 74 1008.8
20260509131042 59 189 3.0 6.0 0.00 0.00 0.00 72 1008.8
20260509130537 59 86 3.0 6.0 0.00 0.00 0.00 73 1008.9
20260509130034 59 53 2.0 4.0 0.00 0.00 0.00 72 1008.8
20260509125531 59 100 1.0 2.0 0.00 0.00 0.00 71 1009.1
20260509125028 60 190 3.0 7.0 0.00 0.00 0.00 69 1009.1
20260509124524 60 134 1.0 2.0 0.00 0.00 0.00 70 1009.2
20260509124022 60 77 3.0 3.0 0.00 0.00 0.00 68 1009.3
20260509123520 60 59 1.0 2.0 0.00 0.00 0.00 67 1009.4
20260509123015 61 120 0.0 0.0 0.00 0.00 0.00 62 1009.6
20260509122512 61 127 0.0 0.0 0.00 0.00 0.00 64 1009.7
20260509122009 61 236 3.0 4.0 0.00 0.00 0.00 61 1009.8
20260509121505 61 36 1.0 1.0 0.00 0.00 0.00 59 1009.9
20260509121003 61 188 2.0 2.0 0.00 0.00 0.00 57 1010.2
20260509120501 60 59 1.0 1.0 0.00 0.00 0.00 57 1010.1
20260509115959 60 178 2.0 2.0 0.00 0.00 0.00 61 1010.2
20260509115456 60 75 0.0 0.0 0.00 0.00 0.00 61 1010.2
20260509114953 60 54 3.0 4.0 0.00 0.00 0.00 61 1010.5
20260509114451 60 65 1.0 1.0 0.00 0.00 0.00 59 1010.4
20260509113951 60 264 2.0 3.0 0.00 0.00 0.00 59 1010.4
20260509113447 60 83 1.0 2.0 0.00 0.00 0.00 62 1010.4
20260509112944 60 54 1.0 1.0 0.00 0.00 0.00 63 1010.5
20260509112442 60 243 2.0 2.0 0.00 0.00 0.00 57 1010.9
20260509111938 60 72 1.0 2.0 0.00 0.00 0.00 59 1010.7
20260509111436 60 63 2.0 3.0 0.00 0.00 0.00 59 1011.1
20260509110933 60 66 1.0 2.0 0.00 0.00 0.00 56 1011.1
20260509110429 61 221 3.0 4.0 0.00 0.00 0.00 55 1010.9
20260509105927 61 185 2.0 4.0 0.00 0.00 0.00 55 1011.1
20260509105426 61 74 1.0 2.0 0.00 0.00 0.00 56 1011.2
20260509104922 61 166 3.0 4.0 0.00 0.00 0.00 54 1011.4
20260509104419 61 75 0.0 0.0 0.00 0.00 0.00 58 1011.3
20260509103916 61 131 4.0 6.0 0.00 0.00 0.00 55 1011.4
20260509103413 61 148 0.0 1.0 0.00 0.00 0.00 57 1011.2
20260509102912 60 95 0.0 1.0 0.00 0.00 0.00 58 1011.3
20260509102409 60 191 5.0 6.0 0.00 0.00 0.00 57 1011.6
20260509101905 60 129 2.0 4.0 0.00 0.00 0.00 59 1011.6
20260509101400 60 75 3.0 4.0 0.00 0.00 0.00 56 1011.9
20260509100859 60 45 1.0 1.0 0.00 0.00 0.00 57 1011.9
20260509100356 60 78 0.0 0.0 0.00 0.00 0.00 60 1012.0
20260509095852 60 72 2.0 6.0 0.00 0.00 0.00 61 1011.7
20260509095350 60 65 0.0 0.0 0.00 0.00 0.00 61 1012.0
20260509094847 60 82 0.0 1.0 0.00 0.00 0.00 66 1012.2
20260509094343 60 240 2.0 3.0 0.00 0.00 0.00 61 1012.2
20260509093841 59 180 2.0 2.0 0.00 0.00 0.00 63 1012.4
20260509093338 59 59 1.0 1.0 0.00 0.00 0.00 64 1012.3
20260509092837 59 50 0.0 0.0 0.00 0.00 0.00 66 1012.6
20260509092334 59 192 1.0 2.0 0.00 0.00 0.00 64 1012.5
20260509091832 59 324 2.0 3.0 0.00 0.00 0.00 67 1012.6
20260509091328 59 290 4.0 6.0 0.00 0.00 0.00 65 1012.8
20260509090826 59 70 1.0 1.0 0.00 0.00 0.00 66 1013.0
20260509090323 59 328 2.0 2.0 0.00 0.00 0.00 71 1013.1
20260509085820 58 230 1.0 1.0 0.00 0.00 0.00 74 1013.1
20260509085318 58 60 0.0 0.0 0.00 0.00 0.00 76 1013.2
20260509084814 58 265 1.0 2.0 0.00 0.00 0.00 77 1013.1
20260509084311 57 202 1.0 1.0 0.00 0.00 0.00 77 1013.1
20260509083809 58 56 0.0 1.0 0.00 0.00 0.00 79 1013.3
20260509083305 58 140 3.0 3.0 0.00 0.00 0.00 78 1013.6
20260509082802 58 225 3.0 7.0 0.00 0.00 0.00 77 1013.3
20260509082258 57 199 3.0 4.0 0.00 0.00 0.00 78 1013.7
20260509081755 57 240 1.0 2.0 0.00 0.00 0.00 80 1013.9
20260509081253 57 204 1.0 2.0 0.00 0.00 0.00 79 1013.8
20260509080751 57 215 2.0 2.0 0.00 0.00 0.00 79 1013.9
20260509080248 57 231 4.0 6.0 0.00 0.00 0.00 79 1013.8
20260509075747 57 248 2.0 2.0 0.00 0.00 0.00 80 1013.9
20260509075243 57 236 4.0 4.0 0.00 0.00 0.00 79 1013.9
20260509074740 57 252 4.0 6.0 0.00 0.00 0.00 79 1014.2
20260509074238 57 232 2.0 3.0 0.00 0.00 0.00 77 1013.9
20260509073734 57 246 2.0 3.0 0.00 0.00 0.00 77 1013.9
20260509073230 57 253 0.0 0.0 0.00 0.00 0.00 75 1014.1
20260509072727 57 141 2.0 2.0 0.00 0.00 0.00 75 1014.1
20260509072224 57 79 0.0 0.0 0.00 0.00 0.00 76 1014.1
20260509071721 57 245 3.0 3.0 0.00 0.00 0.00 76 1014.2
20260509071218 56 277 1.0 1.0 0.00 0.00 0.00 74 1014.1
20260509070715 56 174 0.0 1.0 0.00 0.00 0.00 73 1014.0
20260509070211 55 257 2.0 3.0 0.00 0.00 0.00 81 1014.0
20260509065707 55 125 0.0 0.0 0.00 0.00 0.00 83 1014.0
20260509065203 55 278 3.0 4.0 0.00 0.00 0.00 84 1014.2
20260509064700 55 201 5.0 6.0 0.00 0.00 0.00 84 1014.2
20260509064158 55 253 6.0 7.0 0.00 0.00 0.00 84 1014.1
20260509063655 55 239 5.0 6.0 0.00 0.00 0.00 83 1014.1
20260509063151 55 246 4.0 4.0 0.00 0.00 0.00 82 1014.0
20260509062649 55 265 5.0 7.0 0.00 0.00 0.00 83 1013.8
20260509062146 55 280 3.0 4.0 0.00 0.00 0.00 83 1014.2
20260509061642 55 270 2.0 3.0 0.00 0.00 0.00 81 1013.8
20260509061140 54 271 2.0 2.0 0.00 0.00 0.00 80 1014.0
20260509060638 54 248 3.0 3.0 0.00 0.00 0.00 81 1014.2
20260509060133 53 322 1.0 2.0 0.00 0.00 0.00 81 1014.2
20260509055629 53 4 0.0 1.0 0.00 0.00 0.00 79 1014.1
20260509055125 53 217 2.0 3.0 0.00 0.00 0.00 80 1014.1
20260509054622 53 43 0.0 0.0 0.00 0.00 0.00 81 1014.1
20260509054120 53 270 1.0 1.0 0.00 0.00 0.00 83 1014.2
20260509053618 54 310 0.0 1.0 0.00 0.00 0.00 83 1014.1
20260509053115 54 284 5.0 6.0 0.00 0.00 0.00 82 1014.4
20260509052613 53 276 2.0 2.0 0.00 0.00 0.00 77 1014.2
20260509052110 53 308 2.0 2.0 0.00 0.00 0.00 76 1014.1
20260509051608 53 318 0.0 0.0 0.00 0.00 0.00 73 1014.1
20260509051104 53 296 0.0 0.0 0.00 0.00 0.00 75 1014.4
20260509050601 53 45 0.0 0.0 0.00 0.00 0.00 74 1014.3
20260509050058 53 53 0.0 0.0 0.00 0.00 0.00 74 1014.5
20260509045556 53 48 0.0 0.0 0.00 0.00 0.00 74 1014.2
20260509045053 53 261 0.0 1.0 0.00 0.00 0.00 74 1014.4
20260509044550 53 17 0.0 0.0 0.00 0.00 0.00 74 1014.4
20260509044047 53 17 0.0 0.0 0.00 0.00 0.00 74 1014.3
20260509043543 54 18 0.0 0.0 0.00 0.00 0.00 73 1014.4
20260509043039 54 350 1.0 1.0 0.00 0.00 0.00 71 1014.5
20260509042535 54 261 2.0 3.0 0.00 0.00 0.00 69 1014.6
20260509042031 54 301 0.0 0.0 0.00 0.00 0.00 70 1014.5
20260509041528 54 301 0.0 0.0 0.00 0.00 0.00 69 1014.6
20260509041026 55 307 0.0 1.0 0.00 0.00 0.00 68 1014.6
20260509040524 54 308 2.0 2.0 0.00 0.00 0.00 69 1014.5
20260509040021 54 308 0.0 0.0 0.00 0.00 0.00 66 1014.5
20260509035518 54 308 0.0 0.0 0.00 0.00 0.00 67 1014.4
20260509035014 54 308 0.0 0.0 0.00 0.00 0.00 66 1014.6
20260509034513 55 308 0.0 0.0 0.00 0.00 0.00 64 1014.5
20260509034009 55 308 0.0 0.0 0.00 0.00 0.00 63 1014.7
20260509033506 55 308 0.0 1.0 0.00 0.00 0.00 62 1014.7
20260509033003 55 309 2.0 2.0 0.00 0.00 0.00 61 1014.6
20260509032500 55 36 0.0 0.0 0.00 0.00 0.00 59 1014.7
20260509031958 55 37 0.0 0.0 0.00 0.00 0.00 60 1014.6
20260509031454 54 37 0.0 0.0 0.00 0.00 0.00 63 1014.7
20260509030952 54 37 0.0 0.0 0.00 0.00 0.00 66 1014.8
20260509030450 54 37 0.0 0.0 0.00 0.00 0.00 66 1014.9
20260509025947 54 37 0.0 0.0 0.00 0.00 0.00 66 1014.8
20260509025442 55 37 0.0 0.0 0.00 0.00 0.00 64 1014.9
20260509024938 55 37 0.0 0.0 0.00 0.00 0.00 64 1014.9
20260509024434 55 37 0.0 0.0 0.00 0.00 0.00 63 1015.3
20260509023931 55 36 0.0 0.0 0.00 0.00 0.00 62 1015.2
20260509023428 55 36 0.0 0.0 0.00 0.00 0.00 60 1015.3
20260509022925 55 36 0.0 0.0 0.00 0.00 0.00 62 1015.2
20260509022422 55 36 0.0 0.0 0.00 0.00 0.00 64 1015.4
20260509021920 55 36 0.0 0.0 0.00 0.00 0.00 64 1015.4
20260509021416 55 36 0.0 0.0 0.00 0.00 0.00 64 1015.5
20260509020914 56 36 0.0 0.0 0.00 0.00 0.00 62 1015.6
20260509020412 55 36 0.0 0.0 0.00 0.00 0.00 62 1015.6
20260509015909 55 36 0.0 0.0 0.00 0.00 0.00 63 1015.8
20260509015408 55 36 0.0 0.0 0.00 0.00 0.00 64 1015.6
20260509014903 55 37 0.0 0.0 0.00 0.00 0.00 65 1015.8
20260509014400 55 36 0.0 0.0 0.00 0.00 0.00 65 1015.8
20260509013857 54 36 0.0 0.0 0.00 0.00 0.00 66 1015.8
20260509013354 55 36 0.0 0.0 0.00 0.00 0.00 66 1016.1
20260509012849 55 36 0.0 0.0 0.00 0.00 0.00 65 1016.1
20260509012346 55 36 0.0 0.0 0.00 0.00 0.00 66 1016.2
20260509011844 55 36 0.0 0.0 0.00 0.00 0.00 63 1016.1
20260509011341 55 36 0.0 0.0 0.00 0.00 0.00 64 1016.2
20260509010839 55 36 0.0 0.0 0.00 0.00 0.00 65 1016.2
20260509010336 55 36 0.0 0.0 0.00 0.00 0.00 65 1016.4
20260509005833 55 36 0.0 0.0 0.00 0.00 0.00 65 1016.6
20260509005332 55 36 0.0 0.0 0.00 0.00 0.00 65 1016.7
20260509004831 55 36 0.0 0.0 0.00 0.00 0.00 66 1016.8
20260509004328 55 36 0.0 0.0 0.00 0.00 0.00 66 1016.6
20260509003825 55 36 0.0 0.0 0.00 0.00 0.00 65 1016.7
20260509003323 55 36 0.0 0.0 0.00 0.00 0.00 66 1016.8
20260509002820 54 36 0.0 0.0 0.00 0.00 0.00 66 1016.6
20260509002317 54 347 0.0 0.0 0.00 0.00 0.00 68 1016.7
20260509001815 54 346 0.0 0.0 0.00 0.00 0.00 70 1016.8
20260509001310 53 23 0.0 0.0 0.00 0.00 0.00 72 1016.9
20260509000809 53 26 0.0 0.0 0.00 0.00 0.00 76 1016.9
20260509000307 54 26 0.0 0.0 0.00 0.00 0.00 77 1017.1
20260508235802 54 26 0.0 0.0 0.00 0.00 0.00 75 1017.0
20260508235259 54 26 0.0 0.0 0.00 0.00 0.00 70 1017.1
20260508234756 54 26 0.0 0.0 0.00 0.00 0.00 70 1017.1
20260508234253 54 26 0.0 0.0 0.00 0.00 0.00 70 1017.3
20260508233747 54 26 0.0 0.0 0.00 0.00 0.00 73 1017.1
20260508233245 53 26 0.0 0.0 0.00 0.00 0.00 72 1017.2
20260508232742 54 26 0.0 0.0 0.00 0.00 0.00 72 1017.1
20260508232238 54 26 0.0 0.0 0.00 0.00 0.00 72 1017.2
20260508231736 54 26 0.0 0.0 0.00 0.00 0.00 71 1017.3
20260508231233 54 26 0.0 0.0 0.00 0.00 0.00 71 1017.1
20260508230730 54 26 0.0 0.0 0.00 0.00 0.00 71 1017.2
20260508230226 55 39 0.0 0.0 0.00 0.00 0.00 70 1017.3
20260508225724 55 39 0.0 0.0 0.00 0.00 0.00 69 1017.1
20260508225220 55 41 0.0 0.0 0.00 0.00 0.00 69 1017.3
20260508224718 55 41 0.0 0.0 0.00 0.00 0.00 69 1017.5
20260508224215 55 41 0.0 0.0 0.00 0.00 0.00 69 1017.5
20260508223713 55 42 0.0 0.0 0.00 0.00 0.00 69 1017.5
20260508223210 55 42 0.0 0.0 0.00 0.00 0.00 69 1017.5
20260508222707 55 43 0.0 0.0 0.00 0.00 0.00 69 1017.6
20260508222205 55 42 0.0 0.0 0.00 0.00 0.00 69 1017.5
20260508221701 55 42 0.0 0.0 0.00 0.00 0.00 70 1017.7
20260508221156 54 26 0.0 0.0 0.00 0.00 0.00 70 1017.8
20260508220653 54 24 0.0 0.0 0.00 0.00 0.00 71 1017.8
20260508220150 54 32 0.0 0.0 0.00 0.00 0.00 71 1017.7
20260508215646 55 37 0.0 0.0 0.00 0.00 0.00 71 1017.8
20260508215143 55 356 0.0 0.0 0.00 0.00 0.00 72 1017.9
20260508214640 55 33 0.0 0.0 0.00 0.00 0.00 72 1018.1
20260508214137 55 33 0.0 0.0 0.00 0.00 0.00 72 1017.9
20260508213634 55 35 0.0 0.0 0.00 0.00 0.00 72 1017.8
20260508213130 55 35 0.0 0.0 0.00 0.00 0.00 72 1018.1
20260508212627 55 34 0.0 0.0 0.00 0.00 0.00 73 1018.0
20260508212123 55 30 0.0 0.0 0.00 0.00 0.00 73 1018.5
20260508211618 55 36 0.0 0.0 0.00 0.00 0.00 74 1018.3
20260508211115 55 36 0.0 0.0 0.00 0.00 0.00 74 1018.4
20260508210612 55 37 0.0 0.0 0.00 0.00 0.00 75 1018.4
20260508210109 55 36 0.0 0.0 0.00 0.00 0.00 75 1018.5
20260508205606 55 39 0.0 0.0 0.00 0.00 0.00 75 1018.4
20260508205103 55 46 0.0 0.0 0.00 0.00 0.00 76 1018.4
20260508204559 55 41 0.0 0.0 0.00 0.00 0.00 77 1018.4
20260508204055 55 42 0.0 0.0 0.00 0.00 0.00 78 1018.5
20260508203551 54 46 0.0 0.0 0.00 0.00 0.00 80 1018.5
20260508203047 54 32 0.0 0.0 0.00 0.00 0.00 81 1018.5
20260508202544 54 33 0.0 0.0 0.00 0.00 0.00 82 1018.7
20260508202042 54 38 0.0 0.0 0.00 0.00 0.00 82 1018.7
20260508201538 54 38 0.0 0.0 0.00 0.00 0.00 83 1018.6
20260508201034 54 39 0.0 0.0 0.00 0.00 0.00 84 1018.8
20260508200532 53 38 0.0 0.0 0.00 0.00 0.00 85 1018.7
20260508200027 54 37 0.0 0.0 0.00 0.00 0.00 86 1018.9
20260508195524 54 41 0.0 0.0 0.00 0.00 0.00 85 1018.8
20260508195020 54 41 0.0 0.0 0.00 0.00 0.00 85 1018.7
20260508194517 54 39 0.0 0.0 0.00 0.00 0.00 86 1018.9
20260508194015 54 41 0.0 0.0 0.00 0.00 0.00 88 1018.8
20260508193511 54 44 0.0 0.0 0.00 0.00 0.00 89 1018.9
20260508193008 54 43 0.0 0.0 0.00 0.00 0.00 89 1019.1
20260508192504 55 46 0.0 0.0 0.00 0.00 0.00 90 1018.9
20260508192002 54 43 0.0 0.0 0.00 0.00 0.00 90 1019.1
20260508191458 54 8 0.0 0.0 0.00 0.00 0.00 90 1019.2
20260508190955 54 8 0.0 0.0 0.00 0.00 0.00 90 1019.2
20260508190452 54 7 0.0 0.0 0.00 0.00 0.00 91 1018.9
20260508185948 54 15 0.0 0.0 0.00 0.00 0.00 91 1019.1